GFSSW_925_temp_000.txt.gz
Temp
19 19 19 19 19 20 20 20 20 20 20 21 21 21 21 22 21 21 19 24 24 23 23 22 21 21 21 19 18 16 17 16 19 19 22 22 22 22 20 21 19 18 19 19 18
18 18 19 19 19 19 20 20 20 20 21 21 21 21 21 21 21 18 25 24 24 23 23 22 19 20 18 19 18 17 15 18 18 18 21 22 22 22 22 21 19 19 17 17 15
16 17 17 18 18 19 19 20 20 20 21 21 21 21 21 21 19 22 25 23 24 23 23 22 21 20 20 19 18 16 18 17 19 18 19 21 20 20 20 19 18 19 20 15 13
14 15 15 16 17 17 18 19 20 21 21 21 21 21 21 21 22 25 25 24 23 22 22 21 19 20 19 19 18 19 17 18 20 21 21 21 19 19 18 22 21 18 19 16 12
13 13 14 14 14 15 16 17 18 19 21 21 22 21 21 20 19 25 25 24 22 21 21 18 19 18 19 18 19 18 18 19 18 18 18 18 18 18 17 18 18 17 16 15 13
13 13 13 14 14 14 15 16 17 19 20 21 21 21 20 19 24 24 24 22 22 20 19 19 18 18 19 19 18 19 18 18 17 18 18 19 20 21 19 18 18 16 15 14 13
13 13 14 14 14 14 14 16 17 18 20 20 21 19 17 19 24 24 22 21 21 20 18 19 20 20 20 19 18 19 18 16 16 18 17 16 17 16 19 19 18 17 15 14 13
13 14 14 14 13 14 14 16 17 19 20 20 20 18 17 22 21 20 20 19 19 19 20 20 20 19 19 18 17 19 18 17 19 16 18 19 18 21 20 17 17 17 16 15 16
14 14 14 14 14 14 15 16 17 17 18 19 17 17 18 19 19 19 19 19 18 18 19 19 19 17 18 16 16 15 16 15 16 16 18 16 17 19 18 17 17 16 17 16 19
14 14 14 14 14 14 16 16 15 15 15 15 15 18 18 19 18 17 17 18 17 16 17 17 13 15 12 14 16 16 14 14 15 19 16 16 15 18 17 17 16 17 18 19 19
15 15 14 14 14 14 16 15 14 14 14 16 17 17 19 17 18 16 17 18 16 16 16 15 14 15 17 15 18 17 15 14 15 17 17 18 18 18 18 16 19 20 19 18 19
14 14 14 14 14 14 15 11 11 10 12 13 12 14 15 18 19 15 17 17 17 16 14 13 13 16 17 16 15 14 15 16 17 17 15 15 17 18 18 19 19 19 20 20 19
14 13 13 13 14 14 12 11 11 10 10 13 13 14 16 17 16 16 15 15 16 14 13 16 18 15 15 15 16 14 14 16 15 15 14 13 17 15 16 16 17 17 18 16 16
13 13 13 13 13 12 12 12 11 10 12 14 16 16 16 15 17 13 14 16 15 16 14 14 15 16 14 14 14 16 15 15 15 14 15 15 17 17 18 18 18 18 16 15 15
13 13 13 13 13 12 13 13 11 10 14 17 17 16 14 16 15 14 13 15 15 15 16 16 16 15 14 15 14 16 17 15 14 13 13 14 13 19 16 18 18 17 17 16 15
12 12 12 12 12 13 13 13 11 14 15 17 16 16 16 15 14 13 14 14 14 15 13 13 14 15 15 14 14 15 16 13 10 12 12 14 14 21 17 19 21 20 21 17 16
11 12 12 12 12 13 13 12 14 14 16 18 17 16 16 16 15 13 14 13 14 17 15 15 14 14 15 16 14 15 14 12 11 9 13 13 13 20 20 20 18 18 17 17 14
11 11 11 11 12 13 13 13 13 15 15 16 16 15 16 15 15 13 13 13 12 15 13 14 17 15 13 15 15 12 14 12 13 12 17 9 14 19 21 18 16 15 15 14 13
11 11 11 11 11 12 11 13 14 14 15 16 16 15 14 14 15 13 11 12 14 12 16 13 14 14 13 15 16 14 13 15 13 14 11 17 16 18 19 17 18 17 14 13 13
9 9 11 12 11 10 11 13 13 14 16 16 15 15 14 14 14 13 13 13 14 12 15 16 15 15 15 14 14 14 14 14 11 13 13 15 16 17 19 21 18 15 13 13 12
7 9 10 11 10 10 12 13 14 15 15 15 15 15 14 15 14 15 14 14 14 15 12 14 13 14 14 12 14 13 13 12 13 13 15 14 17 18 20 20 14 12 13 12 8
8 8 9 9 10 10 11 13 13 14 14 12 14 14 14 14 14 14 14 14 14 15 14 13 13 12 14 12 13 13 15 14 14 14 13 14 14 17 16 16 10 5 5 5 5
7 7 8 9 10 11 12 11 13 12 13 13 13 13 14 13 13 13 13 14 13 13 13 12 11 11 11 12 9 11 12 12 12 9 11 11 12 16 12 4 5 5 5 5 5
5 6 8 8 9 10 11 11 12 12 12 12 13 12 12 12 13 12 12 12 10 11 10 11 10 11 11 12 12 12 11 11 10 11 11 11 12 13 4 3 2 4 4 5 5
3 4 5 5 8 9 9 10 10 10 11 12 12 11 11 10 10 10 10 10 9 9 9 9 10 11 11 11 9 9 8 9 8 10 9 10 10 6 1 1 1 3 4 4 4
2 3 3 3 4 6 8 9 9 10 10 10 10 10 10 10 9 9 8 7 8 7 8 8 7 7 7 8 8 8 8 8 9 9 9 9 8 1 2 3 3 3 2 3 3
2 3 3 4 3 4 4 6 7 6 5 5 5 6 7 6 4 4 4 5 5 5 5 6 6 6 6 7 6 6 7 8 9 10 5 6 1 0 1 3 4 4 2 3 1

GFSSW_925_temp_003.txt.gz
Temp
18 18 18 19 19 19 20 20 20 20 20 21 21 21 22 22 22 20 19 24 23 23 22 21 21 21 20 18 17 15 17 17 19 17 21 21 22 20 19 20 18 18 19 20 18
16 16 16 16 17 18 19 20 20 20 20 21 21 21 21 22 21 18 24 23 23 23 22 21 19 19 18 18 17 17 16 18 18 17 20 21 21 22 21 21 19 19 18 19 17
14 15 15 15 15 16 16 17 19 20 20 21 21 21 21 22 20 23 24 23 23 22 22 22 20 20 20 18 18 16 18 17 19 18 19 20 19 20 20 20 19 20 20 18 15
13 13 13 14 14 15 16 16 17 18 20 21 21 21 21 21 22 25 24 24 22 21 21 20 19 19 19 19 17 19 17 17 20 19 20 20 18 19 18 23 21 18 19 18 15
13 13 14 14 14 14 14 15 16 17 18 20 21 21 20 20 20 25 24 23 22 21 21 18 19 17 19 17 18 17 17 18 17 17 17 17 18 18 17 19 18 16 16 16 15
13 14 14 14 14 14 14 15 16 17 19 19 20 19 19 18 23 24 23 22 22 20 19 19 18 17 18 18 18 18 18 17 17 18 17 19 20 18 19 18 18 17 18 16 14
14 14 14 14 14 14 15 16 17 19 20 20 20 18 16 19 23 23 21 21 21 20 16 18 20 19 18 19 17 18 18 16 16 17 17 15 17 16 19 18 18 20 17 17 15
14 14 14 14 14 15 16 16 17 19 20 21 20 18 17 20 20 19 19 19 19 19 19 20 19 18 19 18 17 18 17 17 19 15 17 18 20 20 20 18 18 17 19 16 19
14 14 14 14 14 15 16 17 17 16 17 18 16 17 18 19 18 18 18 18 17 17 17 17 18 16 17 15 15 15 16 14 15 16 17 16 17 17 17 17 17 18 19 20 21
14 14 14 14 14 15 16 17 15 14 14 15 15 18 19 19 17 16 17 18 16 15 16 15 12 15 12 15 17 16 14 13 15 19 16 15 15 17 16 17 18 19 19 19 18
13 14 14 14 14 14 16 16 14 14 14 18 18 17 17 17 17 16 17 17 16 15 15 14 14 15 16 14 16 17 15 14 14 16 16 18 17 17 18 16 18 19 20 19 18
13 13 13 13 14 14 15 12 12 11 12 13 12 13 15 17 18 15 16 17 16 15 12 13 14 16 16 14 14 14 14 15 15 16 13 15 17 18 18 19 19 19 19 17 16
14 13 13 13 13 14 13 12 11 10 10 13 13 13 15 16 15 15 15 14 16 13 12 15 17 14 15 15 15 13 14 16 15 13 13 12 15 15 18 15 16 16 16 15 15
13 13 13 13 13 13 12 12 11 10 12 14 16 16 15 15 16 12 13 15 15 15 12 13 14 15 14 15 14 14 14 14 14 14 15 15 16 15 19 18 18 17 16 15 15
13 12 12 13 13 12 13 12 11 10 15 17 16 15 14 15 14 13 13 15 15 14 14 16 14 14 14 15 14 15 16 15 14 13 13 13 13 15 16 17 18 18 19 17 15
11 11 12 12 12 13 13 13 11 15 15 17 16 16 16 15 14 13 14 14 13 14 13 13 13 14 16 14 14 14 14 11 10 12 12 14 14 17 17 20 19 18 19 15 14
11 11 11 12 13 13 13 12 14 14 17 17 17 16 16 16 15 13 14 13 14 16 14 14 13 14 15 16 13 15 14 13 12 10 13 12 13 17 19 19 17 18 15 13 12
11 11 11 11 12 13 12 13 14 15 15 15 16 15 16 16 16 13 13 14 12 14 13 14 17 14 13 15 15 12 14 13 13 13 16 8 14 19 17 17 16 12 12 10 10
12 11 10 11 11 12 12 13 14 13 15 16 15 15 14 14 15 14 12 12 13 12 16 13 13 14 12 14 15 13 13 14 13 11 12 16 15 18 18 15 11 8 5 5 5
10 9 10 12 11 10 11 13 13 14 15 15 14 15 14 14 15 14 14 13 13 12 15 14 13 14 14 14 13 14 14 13 10 11 13 15 16 17 17 9 5 5 4 5 5
8 8 10 10 10 10 11 12 14 14 15 15 14 14 15 14 14 13 13 13 13 14 12 14 13 13 14 12 14 12 12 13 13 11 14 14 15 15 5 4 4 4 4 4 5
7 8 9 10 10 10 11 12 12 13 14 13 14 13 13 13 13 13 13 13 13 13 13 13 12 10 11 13 12 13 13 13 11 12 11 14 13 4 2 3 4 3 4 5 5
6 7 8 9 10 10 11 11 12 12 12 13 13 13 13 12 12 13 13 12 12 12 12 12 10 10 11 12 10 11 11 12 11 9 11 11 12 4 2 3 3 4 4 4 4
4 5 7 8 8 9 10 10 11 12 11 12 12 12 11 11 11 12 12 12 10 11 10 11 9 11 11 12 11 11 11 10 10 11 11 12 11 11 3 2 3 3 3 3 3
2 4 5 7 6 7 8 9 9 9 10 11 11 11 11 10 9 9 10 8 9 9 9 10 9 9 9 10 9 7 7 7 7 8 8 9 8 10 -0 1 2 3 3 3 3
1 2 2 4 5 6 7 7 8 9 9 9 9 9 9 8 9 8 8 8 9 7 7 7 8 5 5 7 7 7 7 8 8 8 7 8 8 1 1 2 2 3 3 2 2
1 2 2 2 3 3 3 6 5 6 4 3 4 5 6 5 4 4 4 4 4 5 5 5 6 5 7 6 5 5 5 7 8 8 7 6 2 -1 -0 1 2 2 2 2 2

GFSSW_925_temp_006.txt.gz
Temp
17 18 18 18 19 19 20 20 20 20 20 21 21 21 22 22 22 21 21 23 23 22 22 21 20 21 21 22 21 22 25 25 25 24 27 25 25 24 24 25 25 25 26 28 19
16 16 16 17 18 18 19 19 20 20 20 21 21 21 21 22 21 19 23 23 23 22 21 22 23 22 24 22 22 24 24 26 26 26 26 26 25 25 25 27 27 26 26 24 19
15 15 15 15 15 16 17 18 19 20 20 21 21 21 21 21 21 25 24 23 23 22 22 21 22 23 23 22 23 22 25 26 25 25 24 24 24 24 25 26 27 27 28 28 23
14 14 14 14 15 15 16 17 18 19 20 21 21 21 21 21 25 25 24 24 23 21 21 21 22 23 23 23 22 22 23 24 25 23 22 23 24 23 24 26 28 28 27 25 25
14 14 14 14 15 15 15 17 18 19 20 20 20 20 20 22 24 24 23 23 21 21 22 23 23 23 23 23 21 21 23 23 22 21 22 23 23 24 24 26 27 26 24 23 24
14 14 14 15 15 15 16 17 17 19 19 20 20 19 19 21 23 23 22 21 20 20 20 21 24 23 23 22 22 22 21 22 22 22 22 22 24 23 26 26 25 26 26 27 26
14 14 14 14 15 15 16 16 17 19 20 20 20 18 18 22 22 22 20 20 20 19 20 19 20 22 22 22 20 20 21 23 24 22 21 21 22 22 26 25 24 26 27 27 26
14 14 14 14 15 15 16 16 17 18 18 19 20 17 21 20 20 19 18 18 19 19 19 19 19 21 21 20 21 21 20 22 26 20 21 22 24 26 26 24 24 25 26 26 26
14 14 14 14 15 16 16 17 17 16 17 17 15 17 22 18 18 17 18 18 16 17 18 18 19 20 20 21 22 21 22 23 23 22 21 20 23 24 25 23 23 24 25 26 25
14 14 14 15 15 15 17 17 16 15 15 16 16 19 21 20 17 16 17 17 17 17 19 19 20 21 19 22 23 24 23 22 21 24 22 21 21 22 23 22 22 23 24 24 24
14 13 13 13 14 15 17 16 18 19 16 21 21 20 19 16 16 16 16 17 18 19 20 18 20 22 24 23 24 21 21 21 22 23 21 21 21 22 23 23 23 23 24 24 24
14 14 13 13 13 14 15 16 14 13 17 16 15 16 15 16 19 16 16 19 18 20 16 18 20 22 20 19 19 20 19 20 22 21 18 21 20 22 22 22 23 23 23 23 22
13 14 14 14 13 14 13 13 13 12 15 17 15 15 16 17 18 17 16 17 18 17 17 21 23 19 18 20 19 20 19 21 21 20 20 19 22 21 24 21 22 22 21 21 20
13 13 13 14 13 13 13 13 11 11 18 18 17 16 15 16 17 13 13 17 17 18 17 18 17 17 17 18 20 19 21 19 18 18 21 19 21 23 24 24 22 22 22 20 18
13 13 12 13 13 13 13 13 11 10 18 18 17 15 15 17 16 15 13 17 18 17 17 21 16 16 16 19 18 20 17 17 16 18 17 20 18 24 21 22 23 21 18 17 15
12 11 12 12 12 13 13 12 11 18 17 18 17 17 17 16 15 14 15 16 15 16 15 18 14 17 20 16 16 15 17 16 15 17 19 21 20 23 23 22 21 17 13 12 11
11 11 11 13 13 13 12 12 16 15 18 19 18 17 17 17 15 16 16 16 19 19 21 19 17 16 16 18 15 16 18 19 19 19 20 18 17 21 23 17 16 13 11 10 10
11 11 11 11 12 13 12 15 14 18 18 16 16 16 18 18 17 15 17 19 16 17 19 19 19 17 16 19 20 17 18 19 17 19 20 13 18 22 19 13 11 10 10 9 9
12 11 10 12 12 12 13 13 16 17 18 17 16 17 18 16 16 16 16 17 17 16 18 19 19 15 14 15 18 16 16 18 16 14 16 19 21 22 18 11 10 9 9 8 8
10 9 9 11 11 11 12 14 15 15 15 16 16 17 16 17 16 15 15 16 16 15 16 16 15 16 16 14 15 16 17 16 16 15 15 18 19 20 18 12 9 8 8 8 8
9 10 9 10 10 10 11 13 15 15 15 15 16 16 16 16 16 15 14 16 16 16 15 16 15 16 14 16 17 17 15 15 15 15 14 14 17 16 12 8 8 7 7 7 7
8 10 8 9 10 11 12 12 13 14 14 14 14 15 15 15 15 14 14 16 15 15 15 16 12 12 15 17 15 16 16 16 14 14 16 15 15 9 8 7 6 6 6 6 6
8 9 8 9 10 11 12 13 13 13 13 13 14 13 14 13 12 14 14 14 14 13 14 13 11 12 13 14 11 13 14 14 15 11 12 12 13 8 7 7 6 6 6 5 5
7 8 8 8 10 11 12 12 12 12 13 13 13 13 13 12 13 13 13 13 11 12 11 10 10 12 12 14 15 13 13 13 13 11 12 13 14 15 9 8 7 7 6 5 5
4 7 7 9 9 9 11 11 10 11 11 12 12 12 11 11 11 11 12 10 10 9 10 10 10 11 10 10 10 10 10 11 11 10 9 11 11 12 12 8 6 6 6 5 5
5 5 5 6 7 8 9 10 9 10 10 10 10 11 10 10 10 9 9 9 9 10 9 9 8 10 9 11 10 9 10 10 10 9 9 10 10 12 5 5 5 6 5 5 5
1 2 5 4 5 6 7 8 7 7 6 5 6 7 7 8 6 6 5 5 6 6 7 7 7 8 8 9 8 6 7 9 10 11 11 10 9 4 5 5 6 5 5 5 5

GFSSW_925_temp_009.txt.gz
Temp
18 18 19 19 19 20 20 20 20 20 21 21 21 21 22 22 22 20 23 24 23 23 22 22 22 23 24 25 25 26 27 28 29 28 29 29 27 28 28 27 29 29 28 29 25
16 16 16 17 18 19 20 20 20 20 21 21 21 21 22 22 21 22 24 23 24 23 22 24 25 24 26 25 25 26 27 28 29 29 29 29 28 28 28 28 29 30 31 29 28
14 14 15 15 16 17 18 18 19 20 20 21 21 21 21 22 23 27 24 23 23 22 23 24 25 25 25 26 26 27 26 29 29 28 28 27 27 28 26 27 29 30 30 30 29
14 14 14 14 15 15 16 17 18 18 20 20 21 21 21 21 26 24 24 23 22 21 22 23 25 25 25 25 27 24 27 26 27 27 25 26 27 27 26 27 28 29 29 29 28
14 14 14 15 15 15 15 16 17 17 18 19 20 20 20 24 26 24 23 23 21 21 23 25 25 26 25 27 26 23 25 26 26 26 24 25 25 26 26 28 29 28 28 28 28
14 14 14 14 15 15 16 16 17 18 19 19 20 19 20 23 23 23 21 21 21 21 24 24 26 26 25 25 25 26 24 25 25 25 25 24 25 26 27 28 28 28 28 29 29
14 14 14 14 15 15 16 16 17 18 19 20 20 18 21 24 20 18 20 19 19 21 23 23 23 24 25 24 25 23 23 25 26 27 25 23 23 25 28 28 28 27 28 28 28
14 14 14 15 15 15 16 16 17 18 18 19 19 15 22 20 18 19 18 18 18 19 20 20 21 23 23 23 23 22 24 23 27 25 24 23 24 27 27 26 26 27 27 27 28
13 14 14 14 15 16 16 17 17 16 17 17 16 18 24 19 19 17 18 20 19 19 19 19 21 23 22 22 23 25 23 25 25 26 24 22 23 25 26 25 25 26 26 26 26
14 14 14 13 14 15 16 17 16 16 16 15 16 20 20 22 17 16 16 19 20 19 20 21 22 22 23 24 23 25 25 26 25 26 24 24 24 25 26 26 26 26 27 26 25
14 13 13 13 14 15 17 16 19 20 18 22 22 23 24 17 17 17 17 18 20 21 21 21 21 22 25 25 25 24 24 23 24 26 24 23 23 24 25 26 27 27 26 25 23
14 14 14 13 14 15 16 19 16 14 18 21 20 20 19 18 20 18 16 20 20 21 21 20 20 24 25 21 22 23 22 23 24 25 22 22 22 23 25 26 26 24 24 22 21
14 14 15 14 14 15 15 14 14 13 17 21 18 18 19 18 20 20 18 20 20 21 20 22 24 23 22 22 22 22 22 22 22 23 22 22 22 25 26 26 24 23 22 20 17
13 13 13 14 14 15 16 13 13 12 19 21 19 18 17 18 18 15 16 19 20 20 22 21 21 20 20 20 22 21 23 22 21 20 21 21 21 24 26 26 23 20 18 16 15
13 12 12 13 15 16 13 13 12 12 19 20 18 16 17 18 17 16 15 18 19 20 19 22 19 18 19 20 21 22 19 20 19 19 19 21 20 24 25 24 22 18 16 15 14
13 13 12 12 13 13 13 13 12 19 18 20 18 18 18 18 17 16 17 18 17 19 19 20 18 19 21 20 19 18 19 20 19 19 19 22 23 23 25 24 19 16 14 13 13
11 12 11 12 15 13 13 15 18 16 20 20 19 19 19 19 17 17 18 18 20 20 21 21 20 19 18 19 18 18 19 19 20 20 19 23 20 23 24 19 19 16 13 13 12
11 11 11 11 12 13 13 15 14 17 19 18 18 18 18 19 18 18 19 20 21 19 20 20 20 20 18 19 20 20 20 19 18 19 21 16 19 22 17 15 14 13 12 11 11
11 11 10 11 12 12 15 13 15 19 19 19 18 18 19 18 18 19 20 19 19 19 19 19 20 18 17 18 19 19 18 17 15 15 16 19 21 23 15 14 13 12 12 10 10
10 9 10 12 11 12 13 13 16 18 17 17 17 19 19 19 18 18 17 18 17 17 18 18 16 19 17 16 17 18 18 14 13 13 14 19 20 21 22 17 13 11 11 10 10
8 8 10 11 11 12 11 13 16 17 16 16 17 17 18 17 17 16 17 18 18 18 17 16 15 17 18 17 17 17 16 16 17 16 15 15 18 20 17 15 13 11 9 9 9
10 11 9 10 11 13 13 15 15 15 15 16 15 15 15 16 16 16 16 17 17 17 15 16 13 12 16 18 18 16 16 17 15 13 16 15 14 20 13 12 10 9 8 8 7
11 12 8 9 11 12 14 14 14 14 15 15 15 15 16 15 14 15 16 16 15 15 14 14 11 11 13 16 13 14 16 15 16 14 13 13 14 15 11 9 9 9 8 7 7
10 10 10 9 12 13 13 13 14 14 13 14 14 15 15 14 15 14 15 14 12 13 11 12 13 12 12 14 15 13 13 13 11 11 12 13 15 16 14 12 12 10 9 8 7
8 10 10 9 10 11 13 14 13 13 13 13 13 14 14 13 14 14 15 14 13 11 12 12 10 11 12 12 13 12 11 12 12 12 11 12 12 13 13 13 12 11 9 8 7
7 8 7 10 11 11 11 11 11 12 12 12 12 13 13 11 12 11 11 11 11 12 11 12 9 10 8 10 10 10 11 11 11 12 12 12 12 14 13 8 8 8 7 7 7
3 4 6 8 8 10 11 11 11 12 9 9 10 10 10 10 8 8 8 8 8 8 8 9 8 7 7 9 9 8 9 10 11 12 12 10 9 5 8 7 7 7 7 7 7